Regional Weather Roundup
Issued by NWS

Home | Current Version | Previous Version | Graphics & Text | Print | Product List | Glossary On
Versions: 1 2 3 4 5 6 7 8 9 10 11 12 13 14 15 16 17 18 19 20 21 22 23 24 25 26 27 28 29 30 31 32 33 34 35 36 37 38 39 40 41 42 43 44 45 46 47 48 49 50
000
ASUS43 KBIS 231402
RWRND

NORTH DAKOTA REGIONAL WEATHER ROUNDUP
NATIONAL WEATHER SERVICE BISMARCK ND
900 AM CDT WED MAY 23 2018

NOTE: "FAIR" INDICATES FEW OR NO CLOUDS BELOW 12,000 FEET WITH NO
SIGNIFICANT WEATHER AND/OR OBSTRUCTIONS TO VISIBILITY.


NDZ001>003-009>011-017-231500-
NORTHWEST NORTH DAKOTA

CITY           SKY/WX    TMP DP  RH WIND       PRES   REMARKS
WILLISTON      PTSUNNY   68  57  68 N6        29.91F
MINOT          CLOUDY    67  59  75 NE6       29.94F
MINOT AFB      CLOUDY    67  56  67 SE10      29.94S
$$

NDZ018>021-031>035-040>046-231500-
SOUTHWEST NORTH DAKOTA

CITY           SKY/WX    TMP DP  RH WIND       PRES   REMARKS
BISMARCK       PTSUNNY   65  61  87 E7        29.90F
DICKINSON      CLOUDY    62  57  83 NE8       29.88F
GARRISON         N/A     65  59  81 E10       29.92F
HETTINGER ARPT CLOUDY    61  58  90 SE7       29.94R
$$

NDZ004>008-012>016-024-026-027-054-231500-
NORTHEAST NORTH DAKOTA

CITY           SKY/WX    TMP DP  RH WIND       PRES   REMARKS
GRAND FORKS    PTSUNNY   69  59  70 S13       30.03R
GRND FRKS AFB  FAIR      69  59  69 S10       30.03S
DEVILS LAKE    CLOUDY    63  57  81 SE10      30.00S
$$

NDZ022-023-025-028>030-036>039-047>053-231500-
SOUTHEAST NORTH DAKOTA

CITY           SKY/WX    TMP DP  RH WIND       PRES   REMARKS
FARGO          FAIR      70  60  70 S14G24    30.01F
JAMESTOWN      CLOUDY    68  60  75 E13       29.96F
$$





USA.gov is the U.S. government's official web portal to all federal, state and local government web resources and services.